• In France
  • List of Countries
  • For 7 days
  • Water Temperature
  • Satellite Maps
  • Weather Map
  • Weather Widgets
  • user-avatar
    Login

    Hourly Weather Villavicencio

    Today, 21 May, Monday

    Time Temperature Precipitation Wind Pressure Humidity
    00:00 +24°C° 0.5 mm 1 mps 718 mmHg 86%
    01:00 +24°C° 0 mm 1 mps 718 mmHg 87%
    02:00 +24°C° 0.6 mm 1 mps 718 mmHg 86%
    03:00 +24°C° 0.6 mm 1 mps 718 mmHg 86%
    04:00 +23°C° 0.6 mm 1 mps 717 mmHg 85%
    05:00 +24°C° 0.3 mm 1 mps 718 mmHg 84%
    06:00 +23°C° 0.3 mm 0 mps 718 mmHg 82%
    07:00 +23°C° 0.3 mm 0 mps 719 mmHg 80%
    08:00 +26°C° 0.3 mm 1 mps 719 mmHg 78%
    09:00 +27°C° 0.3 mm 1 mps 719 mmHg 75%
    10:00 +29°C° 0.3 mm 1 mps 719 mmHg 72%
    11:00 +29°C° 0.3 mm 1 mps 718 mmHg 71%
    12:00 +30°C° 0.3 mm 2 mps 717 mmHg 69%
    13:00 +31°C° 0.3 mm 2 mps 717 mmHg 68%
    14:00 +30°C° 0.4 mm 2 mps 716 mmHg 71%
    15:00 +30°C° 0.4 mm 2 mps 716 mmHg 75%
    16:00 +29°C° 0.4 mm 2 mps 715 mmHg 78%
    17:00 +28°C° 0.5 mm 1 mps 715 mmHg 83%
    18:00 +27°C° 0.5 mm 1 mps 716 mmHg 88%
    19:00 +24°C° 0.5 mm 0 mps 716 mmHg 93%
    20:00 +23°C° 0.6 mm 0 mps 717 mmHg 92%
    21:00 +23°C° 0.6 mm 0 mps 717 mmHg 92%
    22:00 +23°C° 0.6 mm 0 mps 718 mmHg 92%
    23:00 +25°C° 0.7 mm 1 mps 718 mmHg 91%

    Tomorrow, 22 May, Tuesday

    Time Temperature Precipitation Wind Pressure Humidity
    00:00 +25°C° 0.7 mm 1 mps 718 mmHg 90%
    01:00 +24°C° 0.7 mm 1 mps 718 mmHg 90%
    02:00 +24°C° 0.7 mm 1 mps 717 mmHg 89%
    03:00 +22°C° 0.7 mm 0 mps 717 mmHg 89%
    04:00 +22°C° 0.7 mm 0 mps 717 mmHg 88%
    05:00 +22°C° 0.6 mm 0 mps 718 mmHg 87%
    06:00 +23°C° 0.6 mm 0 mps 718 mmHg 85%
    07:00 +23°C° 0.6 mm 0 mps 719 mmHg 83%
    08:00 +24°C° 0.7 mm 0 mps 719 mmHg 81%
    09:00 +27°C° 0.7 mm 1 mps 719 mmHg 78%
    10:00 +28°C° 0.7 mm 1 mps 719 mmHg 76%
    11:00 +29°C° 0.3 mm 1 mps 719 mmHg 72%
    12:00 +30°C° 0.3 mm 1 mps 718 mmHg 68%
    13:00 +31°C° 0.3 mm 2 mps 717 mmHg 64%
    14:00 +31°C° 0.8 mm 2 mps 717 mmHg 69%
    15:00 +30°C° 0.8 mm 2 mps 716 mmHg 73%
    16:00 +30°C° 0.8 mm 1 mps 715 mmHg 78%
    17:00 +28°C° 1.8 mm 1 mps 716 mmHg 82%
    18:00 +27°C° 1.8 mm 1 mps 716 mmHg 87%
    19:00 +26°C° 1.8 mm 1 mps 717 mmHg 92%
    20:00 +25°C° 1.3 mm 1 mps 717 mmHg 91%
    21:00 +25°C° 1.3 mm 1 mps 718 mmHg 91%
    22:00 +25°C° 1.3 mm 1 mps 718 mmHg 90%
    23:00 +25°C° 1.3 mm 1 mps 718 mmHg 90%

    Day after tomorrow, 23 May, Wednesday

    Time Temperature Precipitation Wind Pressure Humidity
    00:00 +25°C° 1.3 mm 1 mps 718 mmHg 89%
    01:00 +22°C° 1.3 mm 0 mps 718 mmHg 88%
    02:00 +22°C° 1.5 mm 0 mps 718 mmHg 88%
    03:00 +22°C° 1.5 mm 0 mps 718 mmHg 89%
    04:00 +22°C° 1.5 mm 0 mps 717 mmHg 89%
    05:00 +22°C° 1.3 mm 0 mps 718 mmHg 89%
    06:00 +22°C° 1.3 mm 0 mps 718 mmHg 89%
    07:00 +22°C° 1.3 mm 0 mps 719 mmHg 89%
    08:00 +23°C° 0.9 mm 0 mps 719 mmHg 88%
    09:00 +25°C° 0.9 mm 1 mps 720 mmHg 87%
    10:00 +25°C° 0.9 mm 1 mps 720 mmHg 87%
    11:00 +26°C° 0.6 mm 1 mps 719 mmHg 85%
    12:00 +27°C° 0.6 mm 1 mps 719 mmHg 83%
    13:00 +27°C° 0.6 mm 2 mps 718 mmHg 81%
    14:00 +27°C° 0.6 mm 2 mps 718 mmHg 82%
    15:00 +27°C° 0.6 mm 1 mps 717 mmHg 83%
    16:00 +26°C° 0.6 mm 1 mps 717 mmHg 85%
    17:00 +26°C° 0.5 mm 1 mps 717 mmHg 87%
    18:00 +25°C° 0.5 mm 1 mps 718 mmHg 89%
    19:00 +25°C° 0.5 mm 1 mps 718 mmHg 91%
    20:00 +24°C° 0.5 mm 1 mps 719 mmHg 90%
    21:00 +24°C° 0.5 mm 1 mps 719 mmHg 88%
    22:00 +24°C° 0.5 mm 1 mps 720 mmHg 87%
    23:00 +22°C° 0.5 mm 0 mps 719 mmHg 87%

    24 May, Thursday

    Time Temperature Precipitation Wind Pressure Humidity
    00:00 +22°C° 0.5 mm 0 mps 719 mmHg 86%
    01:00 +22°C° 0.5 mm 0 mps 719 mmHg 86%
    02:00 +22°C° 0.7 mm 0 mps 719 mmHg 87%
    03:00 +22°C° 0.7 mm 0 mps 718 mmHg 88%
    04:00 +22°C° 0.7 mm 0 mps 718 mmHg 89%
    05:00 +22°C° 1.2 mm 0 mps 719 mmHg 89%
    06:00 +22°C° 1.2 mm 0 mps 719 mmHg 89%
    07:00 +22°C° 1.2 mm 0 mps 720 mmHg 89%
    08:00 +24°C° 0.9 mm 1 mps 720 mmHg 89%
    09:00 +25°C° 0.9 mm 1 mps 720 mmHg 89%
    10:00 +25°C° 0.9 mm 1 mps 720 mmHg 89%
    11:00 +26°C° 0.6 mm 1 mps 720 mmHg 84%
    12:00 +28°C° 0.6 mm 1 mps 719 mmHg 79%
    13:00 +29°C° 0.6 mm 1 mps 718 mmHg 74%
    14:00 +29°C° 0.2 mm 1 mps 718 mmHg 76%
    15:00 +28°C° 0.2 mm 1 mps 717 mmHg 77%
    16:00 +28°C° 0.2 mm 1 mps 717 mmHg 79%
    17:00 +27°C° 0.4 mm 1 mps 717 mmHg 82%
    18:00 +26°C° 0.4 mm 1 mps 718 mmHg 86%
    19:00 +23°C° 0.4 mm 0 mps 718 mmHg 89%
    20:00 +23°C° 0.7 mm 0 mps 719 mmHg 88%
    21:00 +23°C° 0.7 mm 0 mps 719 mmHg 88%
    22:00 +25°C° 0.7 mm 1 mps 720 mmHg 88%
    23:00 +24°C° 0.2 mm 1 mps 719 mmHg 87%

    25 May, Friday

    Time Temperature Precipitation Wind Pressure Humidity
    00:00 +24°C° 0.2 mm 1 mps 719 mmHg 87%
    01:00 +24°C° 0.2 mm 1 mps 718 mmHg 86%
    02:00 +24°C° 0.2 mm 1 mps 718 mmHg 86%
    03:00 +22°C° 0.2 mm 0 mps 718 mmHg 86%
    04:00 +21°C° 0.2 mm 0 mps 718 mmHg 86%
    05:00 +22°C° 0.1 mm 0 mps 718 mmHg 85%
    06:00 +22°C° 0.1 mm 0 mps 719 mmHg 84%
    07:00 +23°C° 0.1 mm 0 mps 719 mmHg 83%
    08:00 +25°C° 0.2 mm 1 mps 719 mmHg 82%
    09:00 +26°C° 0.2 mm 1 mps 720 mmHg 81%
    10:00 +27°C° 0.2 mm 1 mps 720 mmHg 80%
    11:00 +27°C° 0.2 mm 1 mps 719 mmHg 80%
    12:00 +27°C° 0.2 mm 1 mps 718 mmHg 80%
    13:00 +27°C° 0.2 mm 1 mps 717 mmHg 79%
    14:00 +28°C° 0.1 mm 1 mps 717 mmHg 78%
    15:00 +28°C° 0.1 mm 1 mps 716 mmHg 76%
    16:00 +29°C° 0.1 mm 1 mps 716 mmHg 74%
    17:00 +28°C° 0.2 mm 1 mps 716 mmHg 78%
    18:00 +26°C° 0.2 mm 1 mps 717 mmHg 83%
    19:00 +23°C° 0.2 mm 0 mps 718 mmHg 87%
    20:00 +23°C° 0.2 mm 0 mps 718 mmHg 87%
    21:00 +23°C° 0.2 mm 0 mps 718 mmHg 87%
    22:00 +23°C° 0.2 mm 0 mps 719 mmHg 88%
    23:00 +22°C° 0.4 mm 0 mps 719 mmHg 89%

    26 May, Saturday

    Time Temperature Precipitation Wind Pressure Humidity
    00:00 +22°C° 0.4 mm 0 mps 718 mmHg 89%
    01:00 +22°C° 0.4 mm 0 mps 718 mmHg 90%
    02:00 +22°C° 0.8 mm 0 mps 718 mmHg 91%
    03:00 +22°C° 0.8 mm 0 mps 718 mmHg 91%
    04:00 +22°C° 0.8 mm 0 mps 717 mmHg 92%
    05:00 +22°C° 0.9 mm 0 mps 718 mmHg 91%
    06:00 +22°C° 0.9 mm 0 mps 718 mmHg 90%
    07:00 +22°C° 0.9 mm 0 mps 719 mmHg 89%
    08:00 +25°C° 0.6 mm 1 mps 719 mmHg 87%
    09:00 +26°C° 0.6 mm 1 mps 719 mmHg 85%
    10:00 +26°C° 0.6 mm 1 mps 719 mmHg 83%
    11:00 +26°C° 0.6 mm 1 mps 719 mmHg 83%
    12:00 +26°C° 0.6 mm 1 mps 718 mmHg 84%
    13:00 +26°C° 0.6 mm 1 mps 717 mmHg 84%
    14:00 +26°C° 0.2 mm 1 mps 717 mmHg 84%
    15:00 +26°C° 0.2 mm 1 mps 716 mmHg 83%
    16:00 +26°C° 0.2 mm 1 mps 716 mmHg 82%
    17:00 +26°C° 0.2 mm 1 mps 716 mmHg 85%
    18:00 +25°C° 0.2 mm 1 mps 717 mmHg 87%
    19:00 +24°C° 0.2 mm 1 mps 717 mmHg 90%
    20:00 +24°C° 0.2 mm 1 mps 717 mmHg 89%
    21:00 +24°C° 0.2 mm 1 mps 718 mmHg 88%
    22:00 +24°C° 0.2 mm 1 mps 718 mmHg 87%
    23:00 +24°C° 0.1 mm 1 mps 718 mmHg 86%
    Show more